NOAA-19
1 33591U 09005A 10342.86144618 -.00000142 00000-0 -54452-4 0 07758
2 33591 098.8092 281.4148 0014456 151.8484 208.3471 14.11108806094545
HUBBLE
1 20580U 90037B 10343.84618904 .00000624 00000-0 34781-4 0 6856
2 20580 028.4677 172.9995 0003542 258.4127 101.6171 15.01112968931178
ISS
1 25544U 98067A 10344.03577257 .00023227 00000-0 16969-3 0 4252
2 25544 051.6479 050.5362 0007816 329.1455 094.4888 15.73097633691131
CO-58
1 28895U 05043F 10342.68262821 .00000227 00000-0 56570-4 0 07478
2 28895 097.9905 221.1316 0018900 098.0753 262.2617 14.59976262272445
FALCON
1 30776U 07006E 10342.62472322 .00000936 00000-0 69393-4 0 9749
2 30776 035.4327 065.0055 0001381 292.6259 067.4311 15.03995598206338
MAST
1 31126U 07012K 10343.61280000 .00000240 00000-0 64252-4 0 317
2 31126 097.9181 016.3581 0095504 041.0587 319.7737 14.53652229193540
CAPE1
1 31130U 07012P 10343.55762925 -.00000020 00000-0 57996-5 0 502
2 31130 097.9201 013.3810 0103483 050.4447 310.5816 14.52262421193115
COMPASS
1 32787U 08021E 10343.71807186 .00000259 00000-0 39224-4 0 8503
2 32787 097.8741 045.8728 0016826 074.2157 286.0903 14.82070736141493
AAUSAT2
1 32788U 08021F 10342.62340560 .00000652 00000-0 88133-4 0 08411
2 32788 097.8756 044.9666 0016677 078.8780 281.4318 14.82227999141345
DO-64
1 32789U 08021G 10342.74470955 .00001015 00000-0 13281-3 0 08580
2 32789 097.8833 045.7772 0016568 078.0890 282.2208 14.82478988141367
CO-66
1 32791U 08021J 10343.15951098 .00000716 00000-0 97116-4 0 8421
2 32791 097.8756 045.3124 0017199 075.4376 284.8729 14.81825282141360
RS-30
1 32953U 08025A 10343.75688228 .00000010 00000-0 00000 0 0 2830
2 32953 082.5011 280.4982 0020178 078.7472 281.5874 12.43009728115555
TACSAT-3
1 35001U 09028A 10343.86019615 .00006698 00000-0 14731-3 0 4516
2 35001 040.4554 237.3506 0023279 243.9376 115.9049 15.43959127 87770
PHARMSAT
1 35002U 09028B 10343.83057480 .00005960 00000-0 13019-3 0 4212
2 35002 040.4700 235.0732 0025549 245.8849 113.9347 15.44247211 87794
HAWKSAT1
1 35003U 09028C 10343.85170535 .00015183 00000-0 26586-3 0 4572
2 35003 040.4595 222.9864 0025188 269.1669 090.6294 15.49852669 87938
CP6
1 35004U 09028D 10342.80738742 .00018099 00000-0 29624-3 0 04583
2 35004 040.4613 226.4522 0024469 267.1123 092.6980 15.51674055087796
AEROCUB3
1 35005U 09028E 10343.82412639 .00258325 00000-0 12344-2 0 5535
2 35005 040.4587 198.5894 0024470 297.0840 062.7505 15.80787148 88194
METEOR-M
1 35865U 09049A 10343.71142920 .00000176 00000-0 10000-3 0 9084
2 35865 098.7359 036.0397 0001678 210.9275 149.1757 14.21833451 63663
RS-38
1 35869U 09049E 10343.80424146 .00000177 00000-0 10000-3 0 9194
2 35869 098.7345 036.1725 0004041 212.0080 148.0824 14.21995414 63685
